Powrót do katalogu

ATLAS 5 CENTAUR DEB

LostHEO
NORAD 43979·DEBRIS·🇺🇸 United States

Wystrzelony Sep 17, 2014 z Cape Canaveral Space Force Station

Loading…

Następne Przeloty (najbliższe 24 godziny)

TLE

NieaktualneSource: Space-Track

Epoka: Jan 25, 2019, 15:54 UTC

1 43979U 14055AJ  19025.66294118 -.00000191  00000-0  00000-0 0  9993
2 43979  22.2249  32.7674 4648425  79.4865 328.1574  1.84146158  2646

Śledź ATLAS 5 CENTAUR DEB w czasie rzeczywistym z AllMySat

Download on the App Store